ANIK F2                 
1 28378U 04027A   19261.09216005 -.00000054  00000-0  00000+0 0  9992
2 28378   0.0351  91.7519 0000997 183.7661   3.3303  1.00270567 55648
ARIANE 5 R/B            
1 28379U 04027B   19261.54231692 -.00000269  00000-0 -13052-2 0  9995
2 28379   7.4326  45.8096 7288954 265.3952  29.7049  2.07930992115278